Theta_e
306 306 306 305 305 306 306 306 306 305 304 304 303 307 308 308 305 317 319 318 314 307 301 302 296 298 300 303 303 303 301 299 299 296 299 297 299 297 296 297 294 296 295 295 293 295 290 292 291 294 295 296 298 302 302 302 301 299 295 297 297 297 291 287 288 292 294 297 297 297 298 296 293 293 294 292 288 289 287 285 286 283 284 282 282 279 284
306 306 305 306 305 306 306 306 306 306 304 303 305 306 308 308 309 311 315 319 314 304 292 293 295 299 300 301 302 304 300 300 299 295 296 296 297 296 296 296 299 295 298 295 293 296 286 295 294 292 297 294 302 302 301 301 297 297 296 292 299 288 291 288 284 284 287 290 293 294 295 295 292 290 292 293 292 292 291 290 290 283 284 284 281 276 282
306 305 306 306 306 306 306 306 306 306 305 305 304 302 306 307 312 311 312 315 313 301 302 298 294 297 296 297 298 297 301 302 300 298 295 298 296 296 292 295 297 295 297 294 294 294 292 289 294 295 296 296 301 301 300 301 298 300 301 301 301 292 290 288 281 278 276 277 278 281 284 288 291 292 292 293 292 290 288 283 285 280 285 286 282 281 288
306 305 305 305 306 306 306 306 305 305 305 304 305 305 306 305 295 306 307 309 308 306 307 303 300 297 296 293 297 299 297 300 301 299 298 298 298 297 298 297 299 295 294 290 292 291 294 291 290 293 293 296 298 300 301 300 300 303 304 301 300 292 294 291 289 285 283 285 287 292 293 290 286 289 291 291 293 293 291 288 284 281 285 283 286 287 287
306 306 305 306 306 306 306 306 305 305 304 304 303 305 309 309 300 298 296 304 305 304 304 301 302 296 300 292 298 296 299 298 300 300 295 299 297 297 297 296 289 287 288 291 290 291 290 295 294 293 294 296 297 301 301 301 302 302 300 303 298 293 289 291 292 290 290 292 291 293 293 289 290 289 289 292 291 291 289 285 283 289 284 280 288 290 287
306 306 305 306 305 305 306 306 305 305 304 304 307 304 309 299 302 306 304 297 296 297 297 302 301 302 302 298 299 297 297 297 294 299 299 299 300 295 296 297 298 295 288 290 285 291 291 292 289 295 294 294 298 296 300 299 301 301 300 301 297 293 288 292 293 291 293 293 293 294 293 292 291 291 291 290 291 291 287 287 289 288 283 281 287 290 288
306 306 306 306 305 305 306 306 306 305 303 304 309 302 306 306 304 305 306 298 302 302 303 303 302 301 302 298 299 296 297 296 298 296 296 297 296 298 289 293 295 292 296 291 289 291 287 286 292 292 293 294 294 293 296 299 301 300 298 299 300 294 290 293 293 291 292 293 294 294 293 292 291 291 291 292 291 290 290 290 291 289 287 289 289 289 289
306 306 306 306 305 305 306 306 306 304 303 308 310 304 300 299 297 297 302 303 301 303 304 302 301 299 301 293 298 297 296 295 298 299 296 291 294 298 295 296 297 296 296 294 288 288 292 291 289 295 294 293 295 294 295 295 299 299 297 297 299 294 288 294 293 289 290 293 294 294 294 292 290 291 292 292 292 291 291 291 290 291 289 289 289 288 288
307 306 306 306 305 305 306 306 306 304 303 308 307 306 303 303 306 303 298 295 300 301 302 301 299 296 299 296 298 298 298 297 300 299 300 297 294 295 294 296 296 297 296 294 293 294 295 296 296 297 296 290 295 292 294 297 294 297 296 297 297 297 290 296 292 287 287 292 292 293 293 292 289 289 290 291 290 287 290 288 291 288 286 288 288 286 288
306 306 306 305 305 305 305 306 306 304 304 307 305 301 304 305 309 307 302 294 298 297 301 301 299 294 298 298 299 297 297 299 300 294 299 299 299 299 298 298 296 295 295 294 297 300 299 298 298 297 296 297 296 297 297 297 295 294 296 298 295 296 293 290 289 286 286 292 294 292 290 288 285 286 289 291 291 292 292 293 294 293 291 286 284 286 292
306 306 306 306 305 305 305 305 306 305 305 304 303 302 301 297 298 300 301 292 295 298 298 298 298 299 299 300 299 300 299 299 300 294 292 299 298 300 299 297 295 293 294 297 302 302 300 300 299 299 298 297 297 297 298 299 299 299 297 297 296 297 295 291 294 285 286 291 292 291 287 280 282 292 294 294 291 291 289 289 292 295 293 288 291 291 294
306 306 306 306 305 305 305 305 305 305 304 307 307 303 303 303 303 303 298 291 292 298 297 295 297 299 298 299 299 298 297 298 298 300 297 298 299 301 301 299 298 290 299 303 302 301 300 301 300 300 299 298 298 299 300 299 299 301 301 298 295 295 295 291 293 287 286 290 290 285 280 281 292 296 297 297 296 296 294 294 295 295 294 292 290 291 292
306 306 306 306 305 305 304 305 305 305 305 306 307 302 305 307 302 300 299 295 291 295 294 297 300 300 300 300 298 298 299 300 301 301 301 300 298 299 300 300 297 298 302 300 300 298 295 295 297 298 298 300 300 300 300 300 299 302 301 301 297 293 291 290 289 290 289 287 286 279 281 290 295 297 298 300 299 296 295 293 293 293 292 292 289 291 293
306 306 306 306 306 305 304 304 305 305 305 305 305 304 305 305 300 300 299 293 291 297 298 296 299 298 298 298 298 298 300 299 300 301 298 301 298 298 300 301 301 303 302 302 298 297 294 295 289 291 293 296 296 294 297 299 300 300 300 301 301 298 295 292 287 292 284 286 285 284 289 288 292 292 294 295 292 293 291 286 290 293 296 294 292 293 295
306 306 306 306 305 305 305 304 305 305 305 305 305 305 304 305 303 300 301 297 290 293 296 292 296 297 298 298 299 297 297 297 296 296 300 302 300 301 301 303 304 302 303 298 295 297 293 292 287 286 289 288 285 287 295 293 299 301 301 302 301 299 292 294 288 287 291 286 284 285 284 280 285 294 297 300 300 299 299 294 289 295 297 298 295 294 295
306 306 306 306 306 305 305 304 304 304 305 305 306 305 305 305 305 303 299 296 293 289 296 297 298 298 296 297 299 297 294 293 295 296 296 297 299 301 303 304 303 303 301 298 297 293 292 288 286 286 284 287 292 290 288 293 292 297 300 299 299 300 298 296 290 288 288 285 282 281 280 283 291 293 297 300 300 300 300 292 286 296 298 298 297 295 296
306 306 306 306 306 306 305 304 304 304 305 305 303 304 304 307 304 301 298 297 295 290 299 299 300 300 297 297 298 296 297 293 295 291 290 293 296 298 300 303 304 302 300 298 296 293 290 289 291 290 291 293 288 287 291 291 289 290 296 297 297 294 294 291 289 287 288 286 284 283 287 284 291 295 297 299 300 301 295 281 281 294 297 299 298 296 296
306 306 306 306 306 306 306 305 304 304 304 305 304 304 304 307 306 304 299 297 293 293 300 302 298 295 295 297 295 298 299 298 296 297 294 296 296 298 297 298 297 301 300 292 294 291 289 288 286 286 286 294 294 293 284 289 286 287 289 290 290 289 290 291 286 287 287 286 285 287 287 292 297 296 298 299 300 297 284 278 286 297 299 300 298 298 298
306 306 306 305 305 305 305 305 305 304 304 305 305 304 304 306 306 305 299 296 294 290 299 302 302 299 300 302 299 299 299 298 296 291 291 291 296 300 298 298 300 293 299 292 294 289 288 288 294 292 288 290 293 286 291 286 287 292 292 289 289 290 290 289 290 287 285 286 284 284 287 293 297 298 299 300 294 283 279 292 299 299 298 299 300 298 299
307 306 306 306 306 306 306 306 305 304 304 305 305 301 304 306 307 305 300 295 296 294 298 299 301 298 301 298 296 296 297 298 298 295 293 289 298 299 294 291 298 298 294 297 288 291 288 287 288 293 289 289 291 294 289 291 294 290 291 292 289 290 286 286 286 288 289 287 284 283 279 290 300 298 296 298 288 289 297 298 299 300 298 299 300 299 300
307 306 306 306 306 306 306 306 305 305 304 305 304 302 301 307 307 306 305 300 294 290 294 304 303 300 300 299 300 300 299 295 297 294 296 295 299 295 286 287 291 293 290 292 286 288 289 288 291 290 292 291 292 291 286 288 290 296 294 292 291 295 287 287 288 291 284 284 282 282 288 294 299 297 290 295 296 299 299 298 296 299 299 299 299 299 300
307 306 306 306 306 306 306 306 306 305 305 305 304 304 300 305 306 306 305 303 295 292 296 300 301 300 302 303 303 303 302 301 301 301 297 294 298 296 294 295 295 296 297 297 292 290 294 293 294 289 288 290 294 289 291 287 285 292 297 295 286 295 292 292 287 293 287 286 289 295 297 298 299 300 298 299 300 301 300 299 298 297 298 300 299 299 300
306 306 306 306 306 306 306 306 306 305 305 305 305 303 300 303 304 307 305 298 300 299 301 300 302 302 303 304 306 306 306 306 304 302 301 296 293 296 295 295 296 300 299 300 293 293 293 293 289 293 290 292 290 289 291 290 287 291 289 296 294 299 299 299 295 293 297 297 297 298 297 297 298 302 300 299 299 300 300 299 297 299 299 300 299 300 301
306 306 306 306 306 306 306 306 306 306 305 305 305 303 302 304 305 304 302 300 296 292 296 300 298 295 300 301 305 307 305 304 305 306 307 303 292 292 297 300 300 301 299 300 302 294 294 293 292 293 288 293 294 289 286 286 288 293 291 291 295 298 298 296 291 294 291 286 296 295 295 297 299 298 299 300 300 299 300 299 298 299 300 300 301 301 300
306 306 306 306 306 306 306 306 306 306 305 305 305 305 305 303 304 302 298 291 292 291 287 291 294 301 305 307 307 305 305 307 307 305 304 303 300 295 294 300 302 298 297 299 302 298 295 290 292 292 287 294 295 287 294 289 289 296 288 291 293 292 301 294 294 293 290 289 294 295 297 297 299 297 296 296 298 299 300 300 300 301 301 301 301 301 301
306 306 306 306 306 306 306 306 306 306 305 305 305 303 302 302 305 305 302 300 298 295 288 288 295 304 306 304 303 305 308 307 307 307 306 305 304 303 301 301 301 305 302 302 300 294 292 291 292 292 290 290 299 291 290 294 292 296 292 291 296 297 299 289 293 291 293 295 295 295 295 296 296 297 297 297 298 298 298 299 300 300 300 300 301 301 301
306 306 306 306 306 306 306 306 306 306 306 305 304 304 303 304 307 304 300 298 293 290 292 289 296 301 303 299 303 305 306 306 306 304 303 304 303 303 302 301 299 299 299 298 299 295 294 292 291 290 294 293 297 295 295 294 294 291 290 295 299 295 290 294 293 287 287 287 290 294 287 287 292 295 296 298 299 298 298 298 299 299 299 299 299 299 301
306 306 306 306 306 306 306 306 306 306 306 305 305 304 305 303 305 305 305 303 296 290 290 290 290 295 301 298 304 306 307 306 305 303 303 303 303 303 302 301 300 298 298 296 292 292 291 290 290 293 296 297 294 292 297 298 296 293 292 294 296 293 293 292 288 287 286 292 294 295 294 293 294 294 297 297 298 297 296 297 298 298 299 300 298 298 299
306 306 306 306 306 306 306 306 306 306 306 305 304 303 302 304 305 306 305 306 303 296 293 292 295 294 290 298 304 303 305 306 305 303 303 302 302 302 301 301 299 299 298 296 293 293 291 292 293 293 293 299 294 291 294 288 289 288 292 296 297 297 298 295 294 294 295 296 295 296 294 291 293 296 297 297 298 297 296 297 298 298 299 299 299 300 299
306 306 306 306 306 306 306 306 306 306 305 305 303 298 294 297 304 304 306 305 304 300 289 287 285 289 300 300 300 303 303 305 304 303 302 302 302 302 301 301 300 300 298 294 294 290 293 293 293 298 299 302 294 292 289 290 289 290 295 296 297 297 298 298 298 294 292 296 297 296 294 295 297 297 297 297 298 298 296 297 297 298 299 299 299 299 300
306 306 306 306 306 306 306 306 306 306 305 303 300 291 290 289 300 307 305 306 306 299 291 290 287 293 291 299 301 301 303 303 303 302 302 302 302 302 303 303 302 300 294 294 294 294 294 291 292 295 299 299 295 291 290 290 288 291 294 295 296 296 297 297 298 298 297 296 296 296 296 296 297 297 296 296 297 297 297 297 297 298 298 298 299 299 299
306 306 306 306 306 306 306 306 306 305 305 301 297 296 297 299 303 304 305 305 304 297 290 286 287 289 290 294 301 305 304 304 303 302 302 303 301 302 302 301 300 302 298 295 295 294 293 294 293 295 295 299 296 293 293 291 288 290 295 295 296 296 297 296 296 297 297 296 295 293 293 294 296 293 292 296 297 297 297 296 297 298 298 298 299 299 299
306 306 306 306 306 306 306 306 306 305 303 305 306 303 302 304 305 305 305 303 300 295 296 288 284 288 287 293 300 302 304 302 301 301 299 304 299 302 299 302 301 300 304 296 293 291 296 293 293 293 296 301 293 292 292 290 291 296 296 296 296 296 295 296 296 296 295 295 295 291 290 292 294 296 296 296 296 296 296 295 296 297 296 296 296 296 297
306 306 306 306 306 306 306 306 306 305 305 302 297 299 303 304 304 304 305 303 298 297 293 288 285 285 287 297 292 300 305 299 299 299 293 302 303 301 297 299 300 294 298 294 296 295 296 296 292 292 297 292 295 292 288 292 295 295 295 296 296 295 296 296 295 294 294 294 296 296 296 296 296 296 296 295 295 296 296 295 295 294 294 294 294 294 295
306 306 306 306 306 306 306 306 304 301 298 299 299 303 306 304 303 305 303 300 290 287 287 288 288 285 286 288 288 294 304 299 295 299 294 298 304 299 300 294 296 291 294 301 294 294 292 293 297 291 289 297 291 288 289 293 294 294 295 294 295 295 294 293 293 294 294 295 295 296 296 296 295 293 293 294 293 294 293 294 294 294 293 293 294 294 294
305 306 306 306 306 306 305 304 303 300 297 297 299 306 306 305 304 304 304 303 297 289 287 287 288 285 287 284 286 294 303 298 300 300 299 299 299 302 300 296 291 295 300 295 291 296 292 298 294 288 294 290 288 291 293 294 293 294 294 293 294 294 293 293 293 293 294 295 296 296 295 294 293 293 293 293 293 293 293 292 293 293 293 292 292 293 293
305 305 306 306 305 302 298 297 303 301 299 304 305 307 306 305 305 304 302 298 300 300 290 288 286 287 289 289 292 293 298 290 299 295 298 294 292 296 296 292 290 294 294 292 293 291 295 301 294 290 290 288 289 294 295 295 294 293 293 294 294 295 294 294 294 293 293 293 293 292 292 292 292 293 292 292 292 293 292 291 292 291 291 291 291 291 292
305 305 304 301 299 293 292 296 300 304 305 304 303 300 298 299 290 291 292 290 294 295 291 291 285 289 293 291 286 297 297 293 298 292 293 296 293 292 293 291 292 292 287 290 293 299 295 293 292 290 289 294 295 295 295 295 295 295 295 295 295 295 294 294 294 292 291 290 290 291 291 291 291 291 291 291 292 291 291 292 292 292 292 292 292 292 291
304 303 301 301 297 293 293 298 305 305 303 304 304 291 288 291 289 287 287 290 289 286 290 288 286 290 290 290 291 299 296 293 292 294 290 297 291 288 292 288 292 291 288 288 292 299 289 290 291 290 288 292 292 294 296 295 295 295 295 295 295 295 295 294 294 292 291 290 291 291 291 290 289 290 291 291 291 292 292 291 291 291 291 291 291 291 291
301 297 294 295 294 294 301 304 305 302 299 290 291 290 285 289 286 284 290 285 285 288 290 284 290 292 293 290 290 291 301 295 289 290 292 294 299 289 292 291 292 289 285 285 289 297 289 285 289 289 288 290 291 294 295 295 294 294 295 295 295 295 295 294 294 295 294 294 294 293 293 293 293 291 291 290 290 289 290 290 291 291 291 290 290 290 290
300 299 298 292 297 299 301 302 301 297 290 286 286 286 286 284 288 289 288 285 285 287 293 291 293 291 294 295 295 290 299 302 300 299 295 290 299 297 290 287 293 287 286 285 291 292 289 287 287 287 287 291 292 293 295 294 294 294 295 295 295 295 295 294 295 295 293 293 293 293 293 293 292 292 291 291 290 290 289 289 290 290 290 290 290 290 291
302 301 300 301 300 300 298 295 289 287 286 288 284 282 285 286 289 287 288 284 286 290 293 294 291 292 293 295 294 296 296 303 301 295 292 289 294 291 288 290 291 286 283 290 295 291 289 284 285 286 289 292 293 294 294 293 293 293 294 295 294 294 293 293 293 293 294 293 293 293 292 292 292 292 291 291 290 290 289 289 289 290 290 290 291 291 291
301 300 298 294 291 289 290 285 287 287 283 282 282 280 285 282 285 284 286 290 295 292 294 300 298 301 301 301 297 299 297 302 295 293 291 289 294 292 288 288 287 283 287 294 290 287 285 284 285 288 292 293 294 294 294 294 294 294 294 294 294 294 294 293 293 293 293 293 292 292 292 292 292 292 292 291 290 290 290 290 290 289 290 290 290 290 290
298 297 291 288 287 287 288 281 288 284 283 284 283 279 283 282 285 287 285 287 291 291 296 295 295 294 290 298 295 294 296 296 296 294 292 294 291 288 287 284 285 291 295 289 287 284 285 288 289 290 292 293 293 293 293 293 294 293 293 294 294 294 293 293 293 292 292 293 292 292 292 292 291 291 292 291 290 289 289 289 290 290 290 290 290 290 290
290 287 287 286 285 286 284 280 288 284 281 283 286 286 286 284 286 287 287 294 296 294 298 297 297 295 293 298 298 296 294 292 297 290 287 290 287 289 286 285 290 290 286 284 285 286 286 285 291 292 292 292 293 293 294 294 293 293 293 293 293 293 292 292 291 291 291 291 291 291 291 291 291 290 291 290 290 290 289 289 289 289 289 289 289 289 290
288 287 286 284 280 284 285 283 284 281 286 289 288 290 290 292 292 290 295 298 296 296 296 296 296 296 293 295 291 291 293 293 290 289 291 290 286 284 289 292 291 285 285 285 283 282 284 288 289 291 292 292 292 293 293 293 294 293 292 291 291 291 292 291 291 291 291 291 291 291 290 291 290 290 290 290 290 290 290 290 290 289 289 288 288 288 289
287 288 287 287 284 285 287 283 285 287 290 291 293 294 294 294 297 299 299 299 296 298 298 299 298 296 292 291 291 292 293 293 288 291 291 286 285 288 292 287 283 284 281 281 282 284 286 289 292 292 293 293 293 293 293 293 293 292 292 291 291 291 291 291 291 290 291 291 291 290 290 290 290 290 290 290 290 290 289 290 290 290 289 288 288 289 289
286 288 288 283 282 286 283 286 292 294 295 295 295 297 297 299 297 296 300 300 301 300 297 297 294 295 293 298 295 290 291 291 288 289 290 288 289 286 285 284 283 285 285 283 284 287 289 291 292 292 293 293 293 293 292 292 292 292 291 291 291 291 290 290 290 290 291 290 290 290 290 290 290 289 289 289 289 289 290 289 289 289 289 289 288 288 288
289 287 285 286 288 290 289 292 291 289 292 294 294 295 295 294 295 297 301 302 299 297 299 296 293 291 289 292 290 289 286 290 285 286 289 287 284 281 282 280 281 281 286 288 288 290 290 292 293 293 293 293 293 292 292 292 291 291 290 290 290 291 290 290 290 290 291 290 290 290 290 290 289 289 289 289 288 289 290 290 289 289 288 288 287 287 288
287 287 288 288 289 290 294 295 292 289 292 293 293 292 294 293 293 295 301 299 300 298 298 296 296 290 290 289 286 287 287 290 288 289 286 284 284 285 284 280 283 283 285 289 289 292 293 293 293 292 292 292 291 291 290 291 290 290 291 291 291 291 290 290 290 290 291 290 290 290 290 290 289 289 288 288 289 289 289 289 289 288 288 288 287 287 287
289 287 289 294 289 289 292 287 287 287 289 289 291 292 294 292 294 294 300 299 298 295 292 289 290 289 288 287 286 283 285 291 288 286 285 285 288 285 283 282 285 288 290 292 292 293 293 294 293 292 292 291 292 291 291 291 291 291 291 291 291 291 291 291 290 290 290 290 290 288 289 289 289 289 290 290 289 288 288 288 288 288 287 287 287 287 287
286 284 286 290 293 293 294 295 293 293 293 294 293 295 296 293 296 298 302 298 296 290 288 291 289 287 285 283 286 289 290 288 285 286 284 287 289 285 285 287 288 291 292 292 292 293 293 293 293 292 292 291 291 291 291 291 291 291 291 291 291 290 290 290 290 290 290 290 289 289 289 289 289 290 289 288 288 287 286 286 287 287 287 286 287 287 287
Wind_Speed
18 19 19 21 21 23 25 26 24 22 24 14 11 10 7 5 6 5 5 3 5 5 6 4 4 5 4 4 3 2 6 5 6 8 5 7 2 2 5 6 7 3 6 8 8 8 7 10 7 7 7 8 7 9 3 1 8 7 6 7 5 3 4 7 9 9 11 3 8 15 18 17 9 9 11 10 9 10 12 12 13 13 13 11 10 13 11
17 17 19 20 21 22 25 24 22 21 18 12 11 8 6 7 7 1 5 5 4 5 4 4 4 4 6 5 9 7 6 5 6 7 8 4 4 7 6 6 3 6 7 7 9 9 5 3 11 9 7 7 10 10 3 3 5 5 4 6 7 7 3 9 10 9 8 4 2 7 10 10 5 6 10 12 13 14 14 15 13 14 14 15 12 16 11
16 17 19 19 19 19 22 23 22 21 18 13 7 6 7 9 7 5 3 4 3 4 4 4 4 6 7 8 7 8 8 5 3 5 7 6 6 6 1 1 6 6 7 8 8 9 8 10 9 10 9 9 10 11 8 7 10 8 9 7 7 8 8 7 8 9 10 9 10 9 7 8 9 10 12 13 13 15 12 8 9 11 12 15 12 14 14
15 16 17 18 19 20 20 21 22 22 18 17 7 6 6 4 4 4 6 7 4 5 3 4 6 5 7 6 5 8 8 8 2 2 9 2 5 5 6 4 2 5 6 6 7 9 10 8 6 8 8 9 8 8 13 10 9 7 5 2 6 6 7 6 7 8 10 10 12 11 9 7 10 15 16 16 15 13 11 8 10 12 13 13 17 17 19
13 15 16 17 18 19 20 21 22 22 21 14 7 5 4 7 4 4 5 8 2 6 4 8 7 3 2 3 7 8 10 8 4 8 6 2 5 6 5 4 2 1 0 4 6 6 7 9 11 11 10 10 10 13 12 10 7 3 4 6 1 4 7 7 8 11 12 14 16 15 13 14 15 15 15 15 16 15 14 11 12 10 13 17 14 8 15
13 14 15 16 17 19 20 21 23 24 23 20 5 6 5 4 4 5 4 3 5 7 3 8 7 8 9 4 2 7 9 9 7 7 5 4 6 5 3 7 5 9 6 3 1 7 8 10 7 9 10 11 12 12 9 8 4 7 5 2 3 5 6 9 10 13 14 14 14 12 12 11 12 15 14 13 15 14 14 15 17 14 10 14 21 22 21
11 12 13 15 16 18 19 21 23 24 26 20 5 6 5 5 6 3 7 4 6 7 7 7 8 10 9 6 5 8 9 10 8 8 9 8 7 9 6 5 9 7 12 5 6 6 9 6 8 9 11 11 11 9 10 1 3 5 3 5 4 4 7 9 8 14 15 15 12 11 10 9 8 12 11 12 12 13 14 16 18 16 16 18 19 23 26
10 10 12 14 16 17 18 20 22 23 27 18 2 6 7 5 6 4 8 6 10 10 7 6 7 8 3 2 5 6 8 10 10 7 8 7 9 6 8 10 13 15 13 10 5 5 10 11 12 10 12 13 8 10 9 9 5 5 8 6 1 2 4 6 10 9 14 14 13 11 9 5 7 8 10 10 10 12 14 15 17 17 17 19 18 18 22
9 9 11 12 13 16 17 19 20 22 22 7 7 5 6 5 3 3 6 8 6 8 6 5 6 6 5 4 7 8 9 10 12 11 8 11 9 7 10 11 12 10 11 7 9 8 14 14 15 14 13 13 12 10 8 10 12 11 9 5 3 4 6 8 8 9 11 10 9 10 1 4 5 6 11 11 10 10 8 9 10 6 9 12 12 13 11
9 9 10 10 11 13 15 17 19 20 22 5 7 7 7 7 3 4 6 5 6 7 9 8 6 3 4 6 10 8 13 13 13 8 5 5 6 10 13 12 10 11 11 11 11 11 12 14 15 15 15 15 16 15 15 13 11 9 10 6 8 4 5 6 5 8 11 12 11 11 2 4 3 3 4 7 8 11 13 14 12 12 10 10 7 11 12
9 8 8 9 9 11 12 15 17 18 13 8 7 6 7 6 6 6 4 5 4 5 7 7 7 2 4 9 10 10 13 14 12 11 5 8 12 12 12 12 10 9 11 11 10 11 14 16 18 16 17 20 20 16 15 17 14 13 9 7 6 8 7 7 4 6 11 14 14 7 5 7 2 4 7 7 10 12 12 12 14 7 4 5 7 13 15
8 7 7 7 8 9 10 12 14 15 12 7 8 4 4 3 6 4 5 4 4 7 6 6 7 7 9 8 8 11 13 13 14 12 14 10 12 13 12 9 8 7 8 10 12 13 16 18 19 19 22 24 23 19 16 15 12 10 8 9 8 9 8 7 4 6 10 11 12 9 5 1 4 5 6 8 9 11 13 16 13 6 3 8 12 14 16
8 7 7 6 6 8 8 9 11 13 14 9 7 5 5 5 4 5 5 6 5 6 7 8 10 8 7 8 10 12 12 12 13 15 13 12 10 11 10 9 6 10 11 12 13 14 12 13 15 12 13 6 7 11 15 13 12 11 7 8 7 6 6 6 5 3 7 8 6 7 1 4 4 3 3 5 9 7 10 9 4 3 2 7 11 14 15
8 7 7 6 6 6 7 7 9 10 13 11 6 5 5 6 6 5 4 3 6 6 7 8 6 6 9 11 11 12 11 10 11 12 12 8 12 14 15 13 10 7 8 9 11 10 8 8 7 8 9 4 5 3 7 9 10 8 7 7 6 6 8 3 5 4 7 6 7 9 5 1 6 11 11 13 13 15 11 8 3 6 2 12 14 17 14
8 8 7 6 6 5 5 5 6 8 9 11 6 4 4 5 5 4 4 4 5 8 9 4 8 10 11 11 10 9 8 9 9 8 11 12 12 6 10 8 5 8 10 9 7 7 6 6 5 6 7 6 4 5 0 1 3 6 7 7 6 6 3 3 2 2 2 9 8 7 2 3 8 13 14 13 14 15 13 2 2 5 7 13 17 19 19
9 9 8 7 6 5 5 4 4 5 7 9 6 3 3 4 4 3 3 4 4 4 3 8 9 10 9 9 10 10 7 6 7 9 10 10 12 13 13 10 5 8 8 7 6 5 4 5 5 5 6 7 5 5 4 6 6 2 7 7 7 5 6 6 4 5 6 6 8 6 5 3 9 15 16 16 15 17 13 4 2 2 13 15 16 18 18
10 10 9 8 7 6 5 3 4 4 6 5 5 3 2 2 3 3 4 3 3 6 9 9 7 9 8 8 7 7 7 5 7 7 7 8 11 12 13 12 8 8 6 6 6 4 4 5 7 8 7 7 6 5 8 5 8 9 6 5 4 3 3 4 5 6 4 6 7 6 2 2 14 17 17 16 19 16 8 8 9 13 17 16 15 18 20
11 10 10 8 7 7 7 6 4 3 4 4 5 4 1 3 1 3 2 3 4 7 4 3 9 7 6 8 9 9 8 7 7 7 7 9 11 6 11 9 8 4 5 4 5 6 4 5 5 5 6 7 7 7 5 8 8 6 10 9 7 5 3 2 6 7 8 8 6 5 1 2 13 15 18 17 18 8 9 11 11 15 13 13 14 14 18
12 11 11 10 9 9 8 7 5 4 3 3 5 5 4 1 1 1 2 4 4 5 7 11 9 9 10 10 9 9 8 9 8 5 6 7 6 14 16 10 6 5 6 5 7 4 4 5 6 7 6 6 7 4 7 5 6 8 11 9 8 5 5 3 5 6 8 7 8 7 3 4 14 15 14 15 11 9 15 10 12 15 15 15 13 15 18
12 11 11 10 10 9 9 8 7 6 5 5 4 3 2 3 1 2 4 5 5 10 11 12 9 10 7 9 9 8 7 7 6 6 6 7 10 15 12 2 4 6 9 4 4 4 5 5 6 6 6 7 6 7 5 7 9 10 7 5 6 5 3 6 5 5 5 4 7 7 5 5 15 18 8 12 8 8 6 12 15 16 16 14 12 13 16
12 12 12 11 11 11 10 10 9 7 7 6 5 3 4 2 3 3 4 5 6 8 7 3 9 13 12 13 13 13 12 11 8 8 8 9 9 7 6 4 8 5 4 5 6 5 4 6 8 6 5 6 7 7 6 8 10 3 5 7 5 5 5 3 3 6 5 6 7 4 2 10 12 14 8 12 9 11 13 14 15 15 14 12 11 14 15
12 11 11 12 12 11 11 11 10 9 8 6 6 4 5 2 4 2 3 4 6 7 8 13 13 15 16 15 14 13 13 12 11 9 9 8 8 8 7 10 10 6 4 5 6 4 5 5 6 5 6 7 6 6 9 8 7 7 6 7 3 7 4 2 6 5 3 5 3 2 4 10 12 10 11 12 14 14 16 15 14 15 15 14 11 15 16
12 12 12 13 13 12 11 11 11 9 9 7 6 5 5 2 2 2 3 6 7 9 11 13 11 13 16 18 17 12 11 10 9 8 7 8 7 8 8 7 6 4 4 5 6 5 7 8 6 7 7 7 7 8 9 7 7 6 7 6 3 6 2 4 5 4 9 2 3 8 11 13 14 9 11 13 16 15 15 16 16 18 17 15 14 15 16
13 12 13 13 13 13 12 12 11 10 10 10 8 5 5 4 4 5 5 6 6 8 9 8 6 4 7 9 4 11 11 9 10 9 6 7 7 6 7 3 6 5 4 6 4 5 6 5 6 6 7 7 9 6 7 6 6 9 9 6 4 6 9 8 5 6 8 4 10 14 15 14 11 13 13 12 13 16 17 16 16 17 18 20 18 17 16
13 12 13 14 14 14 13 13 12 10 9 10 9 7 6 6 5 4 4 3 2 3 6 6 10 11 10 8 7 8 9 9 9 13 12 13 11 9 9 5 9 8 8 5 4 5 3 5 6 6 7 7 6 7 6 8 7 7 8 6 6 3 7 8 7 11 7 8 11 15 16 12 7 11 13 17 19 18 17 16 17 18 19 18 18 20 20
13 12 12 13 14 14 14 14 12 10 10 11 10 7 7 6 3 3 4 5 5 4 5 5 6 7 9 10 11 10 11 11 11 11 14 13 14 11 10 8 7 6 6 5 4 3 4 4 4 6 7 5 4 6 7 7 10 10 9 7 2 7 9 4 10 9 9 9 12 16 16 5 10 15 15 15 16 17 19 19 20 20 21 21 20 18 19
14 13 13 13 14 15 14 13 12 11 10 10 9 8 8 7 6 6 5 3 5 4 5 7 8 9 13 18 18 15 13 11 10 12 14 13 10 9 8 8 8 7 6 6 5 4 3 5 5 8 7 7 7 9 9 9 8 6 3 4 7 5 6 8 8 6 7 9 13 15 13 12 14 14 17 17 17 17 19 19 19 20 21 21 22 22 20
14 13 13 13 15 16 14 13 13 11 11 11 9 7 7 8 8 7 7 6 6 5 7 8 9 12 16 19 14 8 7 8 9 9 9 10 11 10 9 9 8 7 6 6 5 4 5 7 8 5 7 8 7 7 7 9 11 3 6 6 6 5 6 6 5 6 8 11 12 11 11 11 12 16 17 17 16 16 18 19 19 19 20 20 21 22 21
14 14 14 14 15 16 15 14 13 11 10 9 7 7 8 9 9 9 9 6 5 6 5 7 11 11 8 8 14 14 13 11 10 9 10 10 11 10 9 9 9 8 7 5 4 5 6 7 5 7 7 7 6 6 7 6 6 2 4 6 6 3 4 5 6 8 9 10 11 11 10 11 14 15 16 15 14 16 17 18 18 19 20 20 21 19 20
15 14 14 15 17 17 17 15 13 11 11 8 6 5 5 6 10 10 8 7 5 3 2 3 7 4 8 11 12 11 9 7 7 10 10 9 10 9 9 9 9 8 7 5 4 7 6 6 5 8 10 9 9 6 7 7 5 3 5 4 4 4 5 5 6 7 9 10 9 10 9 12 12 12 12 13 15 15 15 16 18 19 19 19 19 19 18
15 15 16 17 16 16 16 15 13 13 12 7 4 2 2 2 4 3 6 4 5 4 1 2 7 7 9 9 11 12 9 7 8 10 11 10 9 9 9 8 8 7 4 5 6 7 5 7 6 8 8 10 6 6 8 8 6 2 2 4 5 6 8 8 8 9 9 8 9 10 11 10 11 12 13 15 16 16 15 15 17 17 18 19 18 18 17
14 15 15 15 15 15 14 14 13 14 9 9 9 4 0 2 3 7 6 5 5 2 1 4 6 5 5 6 7 7 9 9 9 7 8 7 9 8 9 9 8 8 7 6 5 5 8 7 9 10 9 5 4 7 8 9 8 4 4 5 5 6 7 8 8 8 8 9 10 11 11 11 11 12 13 16 16 17 16 17 18 17 17 16 16 16 18
15 14 14 14 14 14 14 14 14 12 10 10 4 7 2 1 8 7 5 5 2 1 1 2 5 3 4 6 10 13 10 8 8 7 8 5 7 5 7 7 7 7 7 5 5 6 6 6 6 9 9 6 3 4 7 5 5 3 5 6 6 7 8 8 8 7 8 8 9 11 12 13 15 15 13 13 15 15 17 18 18 17 17 18 19 20 21
15 14 14 14 14 13 15 14 14 15 9 3 6 8 4 7 6 4 5 2 2 0 1 2 3 5 6 6 9 5 5 7 6 6 6 7 6 6 5 5 6 5 5 8 5 6 7 8 7 7 7 4 4 1 5 4 2 3 4 6 6 7 7 6 6 8 8 10 10 11 12 12 13 14 14 15 15 16 17 16 17 19 19 17 18 19 19
15 14 14 13 13 13 12 13 9 10 9 7 5 2 8 14 9 7 6 3 2 1 2 3 2 6 6 5 5 8 6 5 6 4 5 4 7 8 5 4 2 3 3 7 6 6 6 6 6 5 8 2 3 4 3 6 7 2 4 6 7 8 10 10 9 9 9 10 11 11 11 13 13 14 14 14 14 15 17 17 17 18 18 17 18 19 19
15 14 13 13 12 11 7 10 7 6 6 5 2 7 14 15 12 7 6 4 3 2 2 3 3 6 5 6 5 2 3 7 7 5 7 2 8 6 6 5 8 7 4 4 6 7 7 6 4 7 0 2 4 3 1 3 4 4 5 5 6 7 8 9 10 12 12 13 13 12 13 14 14 14 13 14 15 15 16 17 18 17 17 17 18 18 17
15 14 14 11 7 5 7 5 4 6 3 6 8 9 11 8 3 2 3 4 3 1 4 2 6 9 7 6 3 3 4 4 4 6 6 4 5 3 5 4 7 1 4 6 7 8 9 4 5 6 5 5 1 6 4 4 5 5 4 5 5 6 7 8 9 11 12 13 13 11 12 14 15 13 15 15 15 16 16 17 17 18 19 20 19 18 18
14 14 8 7 5 3 2 4 5 9 18 19 14 7 2 2 2 2 2 2 3 5 5 5 9 6 6 8 9 4 6 6 5 4 3 3 3 4 3 4 4 2 6 6 8 9 5 4 6 7 3 7 6 3 2 2 2 2 3 4 5 6 7 8 8 9 10 11 11 13 13 13 14 15 15 17 16 16 15 14 14 15 15 16 16 17 17
12 7 6 5 3 4 3 5 13 18 10 3 3 2 1 2 2 3 3 3 2 5 4 6 9 9 10 11 12 7 8 6 7 5 5 1 1 4 3 6 3 3 5 5 4 3 5 4 5 5 4 6 5 4 2 1 1 1 2 4 4 6 7 7 8 10 13 13 14 13 12 12 14 15 15 15 14 14 14 14 15 15 15 15 16 17 17
8 9 5 4 3 2 8 12 16 11 4 3 0 1 2 3 4 4 3 4 3 4 4 8 8 10 14 15 11 10 8 10 8 6 5 4 3 3 0 3 1 1 5 5 3 4 3 5 2 3 4 6 4 4 3 2 2 0 2 4 5 6 6 8 9 9 11 13 13 13 13 12 12 13 14 13 14 14 14 13 14 14 15 15 15 16 17
6 3 4 3 5 6 5 4 3 4 3 2 2 1 1 4 5 2 2 6 6 3 6 6 5 8 10 13 12 11 5 6 8 8 4 4 0 1 3 4 1 4 4 6 2 1 2 3 6 4 2 6 5 5 3 3 1 1 3 4 5 6 7 9 10 11 12 12 12 13 12 13 14 13 11 13 13 13 13 13 13 14 16 16 17 17 15
3 4 6 8 6 6 4 4 2 2 1 0 2 4 4 2 2 3 3 5 6 3 7 8 9 10 9 12 11 9 6 6 5 3 3 5 3 4 3 3 2 5 6 3 6 4 4 6 6 3 5 5 5 4 3 2 1 2 3 4 4 6 8 8 9 11 11 13 12 10 10 13 13 11 11 12 12 12 12 13 13 14 15 15 15 14 15
22 16 10 7 3 2 0 2 1 1 4 3 3 4 5 5 6 5 4 3 2 3 3 9 7 5 5 8 8 8 5 4 4 4 4 5 1 2 3 4 3 7 5 4 4 4 5 7 4 4 5 5 4 4 2 1 1 3 3 3 5 7 8 9 11 11 11 10 10 10 12 11 11 11 11 11 11 12 12 11 12 12 13 15 14 14 15
8 6 6 1 2 1 1 3 2 2 4 4 6 8 7 6 7 5 4 4 4 5 8 9 8 7 6 7 6 5 2 2 1 1 4 3 3 3 3 5 6 5 4 5 4 8 6 2 2 6 6 6 4 3 1 1 3 3 5 6 8 8 9 9 9 9 10 9 10 11 10 10 11 11 11 10 11 12 12 11 11 13 14 15 14 15 15
4 3 3 2 2 3 3 3 3 4 8 9 6 7 8 9 8 9 8 4 6 4 5 9 7 8 8 6 4 4 2 3 3 4 3 3 5 4 4 6 4 3 4 6 5 6 3 3 4 6 6 6 4 3 1 2 3 5 6 7 7 7 8 8 8 8 9 9 10 10 10 11 11 11 11 11 11 10 11 12 12 12 13 13 13 14 14
3 4 4 4 5 4 4 4 5 6 5 4 6 8 9 9 7 9 5 4 5 6 6 7 7 7 5 3 3 3 3 2 4 4 3 3 4 6 4 3 3 6 5 6 7 8 4 3 5 4 5 3 3 1 1 3 4 5 6 6 7 7 7 7 8 8 8 9 9 9 10 10 10 10 11 12 11 11 11 11 11 12 12 13 13 14 14
3 0 0 1 2 3 2 6 9 6 3 6 9 8 9 6 2 3 4 4 6 6 5 5 6 7 4 3 2 2 3 3 4 3 3 4 5 3 1 3 5 5 7 9 7 7 2 3 3 5 4 3 2 2 4 4 4 5 5 6 6 6 6 7 8 8 8 10 10 10 10 10 10 11 11 11 11 11 11 11 11 12 12 12 13 13 14
4 2 2 4 5 5 11 9 5 6 8 7 6 6 3 4 4 4 3 3 4 4 6 6 7 6 6 4 3 5 5 4 4 4 4 3 2 3 3 4 6 4 4 6 8 0 3 4 3 4 4 2 2 4 5 5 4 4 4 5 6 6 7 7 7 8 9 10 10 9 9 10 11 11 10 11 12 11 11 11 11 11 11 12 13 13 13
2 4 4 3 2 3 4 7 9 10 8 3 2 3 2 2 3 3 2 1 3 5 6 7 1 2 3 2 3 3 4 3 5 4 3 4 4 5 5 6 6 8 5 5 2 5 4 4 4 2 2 3 3 4 4 3 2 3 3 5 5 5 6 6 7 8 9 9 9 9 9 10 10 10 11 11 12 12 12 11 11 10 10 11 12 13 13
2 2 2 3 3 6 6 5 8 10 7 6 5 3 2 3 5 6 3 4 5 5 5 4 2 1 2 3 3 4 5 4 4 3 5 8 5 5 5 9 7 5 6 1 5 2 4 4 4 4 4 3 2 3 3 2 0 2 4 4 5 5 5 6 8 8 8 8 9 9 11 10 9 10 11 12 11 11 11 11 10 10 11 11 12 12 12
1 2 3 5 8 4 4 6 8 7 5 6 7 6 6 8 8 7 6 6 6 5 4 6 4 3 3 3 3 5 4 3 5 8 6 6 4 6 7 8 6 5 2 5 3 3 3 3 4 4 3 4 4 3 3 2 1 3 3 5 5 5 5 6 7 7 8 8 8 9 9 9 9 11 10 10 11 11 11 10 10 10 10 11 11 12 12
3 4 5 6 9 9 8 2 3 4 3 4 6 5 5 8 7 7 5 7 7 7 8 4 4 3 3 6 5 3 1 2 5 5 9 6 4 6 6 6 6 6 3 3 3 3 3 4 4 2 2 1 1 2 2 1 2 4 4 4 5 5 6 7 6 7 7 7 8 8 9 9 10 10 10 10 10 10 9 9 10 10 10 10 11 11 11
Wind_Direction
340 340 341 343 342 341 339 340 340 343 344 351 347 321 290 271 326 100 28 334 317 304 288 360 9 26 43 322 258 7 316 313 316 306 344 331 292 257 259 343 15 326 312 343 315 322 310 296 264 332 337 318 354 337 327 205 272 309 289 311 94 268 257 289 298 312 308 3 298 14 16 14 3 360 340 325 304 312 300 295 300 291 289 281 277 263 274
340 339 340 342 341 340 338 337 337 341 356 345 318 313 313 322 308 282 146 283 269 271 13 341 353 3 350 1 293 78 250 263 319 336 333 319 313 304 333 351 336 308 325 312 308 331 320 300 331 323 332 306 349 312 303 263 307 306 341 307 355 311 339 318 309 306 313 295 290 36 356 8 11 316 315 314 315 320 319 318 306 285 272 271 275 274 282
339 340 339 339 339 338 336 334 333 338 344 346 319 312 314 288 247 262 101 193 9 27 9 8 334 3 356 337 340 358 309 51 320 307 313 309 283 293 6 301 301 301 338 325 310 302 303 301 300 297 306 313 313 297 301 304 298 293 283 269 295 282 297 309 308 313 315 319 324 334 337 334 306 289 294 295 306 315 322 307 320 293 299 296 274 271 276
337 340 338 338 338 338 336 333 332 333 340 345 332 312 291 343 335 359 335 343 278 151 96 33 347 11 4 320 355 331 356 318 223 44 317 325 333 287 291 258 16 311 342 310 311 310 303 293 301 300 298 299 290 324 321 318 320 10 37 284 276 286 290 278 287 288 277 282 292 291 288 288 290 298 296 298 300 298 295 290 283 275 299 295 275 282 299
335 337 339 337 339 338 337 334 331 330 333 348 322 285 242 289 315 2 335 316 194 357 51 17 353 354 6 309 1 313 360 336 358 94 307 4 333 305 264 251 122 13 263 289 308 291 285 282 283 279 290 304 315 329 322 315 61 83 251 200 258 255 280 287 290 271 270 280 282 291 292 287 293 296 296 299 296 295 291 280 271 294 299 280 274 311 306
332 335 337 338 339 341 339 334 332 331 330 336 313 299 306 313 9 332 56 298 319 339 351 7 336 321 300 325 201 299 355 339 335 334 302 286 276 278 285 292 277 162 195 178 229 304 300 300 294 325 330 320 322 320 315 332 126 226 313 6 252 301 285 291 290 283 287 295 295 294 290 286 288 291 295 301 304 298 287 278 275 278 270 272 294 303 295
328 331 337 339 340 342 340 336 333 333 329 330 272 327 345 351 329 54 21 307 310 325 331 326 313 299 285 292 291 8 338 337 347 334 318 322 322 313 329 303 274 198 212 233 277 317 318 301 304 310 309 314 317 304 313 281 270 303 292 314 353 314 275 283 295 298 297 292 295 293 280 278 288 289 308 311 307 298 290 282 280 268 260 270 281 291 290
322 323 334 340 340 342 341 337 334 334 334 320 305 45 329 26 346 337 344 311 287 265 276 302 280 311 155 254 20 1 337 328 329 321 322 318 307 308 276 302 334 336 328 319 282 271 262 276 293 300 303 298 283 293 299 316 308 300 299 306 126 219 285 306 305 305 294 293 292 285 255 247 272 287 298 300 299 298 284 278 275 274 267 266 270 279 285
312 316 335 341 340 342 340 339 337 335 341 339 350 53 37 326 329 337 316 318 320 327 279 263 304 305 328 351 348 326 318 322 329 326 341 302 318 341 317 317 312 307 307 310 288 266 264 269 275 282 280 284 296 298 297 305 299 297 299 287 273 205 280 285 309 303 290 293 312 321 31 253 257 290 283 291 300 300 294 290 288 271 272 284 289 287 287
306 317 330 336 341 342 341 340 339 342 333 336 358 26 13 341 16 330 310 291 308 307 304 297 290 292 41 326 323 328 322 317 326 325 332 321 315 309 331 333 312 293 284 277 292 317 315 305 299 294 286 277 276 273 278 283 288 291 286 288 275 238 270 296 315 292 280 294 309 316 229 239 230 235 281 300 275 253 273 286 280 271 292 297 302 297 294
302 311 322 328 338 343 345 342 341 344 348 9 357 26 11 9 341 326 330 306 292 310 315 307 306 62 325 332 322 321 316 320 330 314 318 312 311 320 317 311 303 294 289 297 306 310 300 294 288 279 270 262 259 258 259 260 259 272 272 280 265 263 265 283 284 270 289 303 309 312 290 296 34 269 273 274 281 293 299 300 309 336 46 292 276 281 290
292 303 312 320 329 340 347 344 344 341 348 336 317 25 36 335 303 300 328 309 297 319 313 319 335 324 322 320 309 313 315 318 316 309 303 318 302 300 291 284 308 293 310 316 312 308 299 283 270 260 250 249 249 251 253 255 259 254 258 260 273 270 273 277 275 274 287 300 300 292 288 131 253 269 262 257 269 279 288 284 299 350 358 294 288 287 291
282 291 303 314 321 335 343 346 345 337 340 340 335 40 360 347 301 320 315 306 292 318 320 312 322 304 303 307 305 311 312 307 300 304 301 300 315 294 282 271 273 294 328 316 317 306 297 294 291 293 297 290 271 236 237 251 265 256 228 244 267 287 280 283 274 270 281 285 308 313 308 143 257 289 348 269 251 257 288 281 83 90 243 311 304 298 293
274 280 292 303 312 320 329 345 341 338 332 340 349 24 355 6 355 339 349 320 296 301 324 304 281 348 335 319 315 306 306 306 318 312 297 326 299 291 290 346 357 324 304 320 307 298 293 302 324 320 308 218 175 241 240 242 253 270 260 236 231 275 299 292 303 292 295 310 302 303 72 123 23 359 356 1 350 341 341 321 233 207 264 344 325 323 318
266 270 273 284 300 300 307 329 344 332 327 335 321 350 18 16 357 340 331 300 293 299 271 294 350 327 320 313 308 308 307 323 324 313 313 308 297 334 323 290 356 336 325 304 298 299 304 328 316 319 310 317 332 326 246 295 202 223 262 261 213 193 191 309 288 282 304 304 313 308 303 321 11 358 346 353 343 332 335 339 297 199 319 341 339 335 331
258 262 267 270 270 281 296 301 323 319 319 329 314 345 43 32 355 321 321 319 315 298 57 360 330 319 310 303 296 309 326 325 317 312 317 324 313 330 315 24 360 324 310 296 281 292 296 294 281 283 311 320 329 282 327 332 322 286 205 236 239 156 189 250 260 272 298 307 304 317 319 68 1 358 346 348 339 326 322 288 321 70 342 341 341 330 326
254 257 259 258 259 265 275 274 269 294 307 333 315 339 44 48 340 343 321 278 249 260 314 317 307 304 297 293 339 338 337 322 319 317 323 309 305 313 337 329 322 280 262 260 296 301 311 304 300 301 301 320 324 345 318 321 326 321 307 169 264 267 187 206 250 265 255 275 301 319 25 42 9 357 350 349 333 323 315 352 340 343 337 334 334 327 325
246 249 250 249 252 253 255 256 251 254 288 300 292 308 343 122 3 318 266 289 297 291 266 317 338 322 307 331 308 314 309 295 294 309 298 300 290 340 339 330 325 316 201 262 286 303 305 289 298 303 306 321 321 305 322 350 314 317 315 339 334 328 313 280 308 318 328 325 314 317 133 151 5 356 349 352 328 310 3 1 322 318 317 323 329 319 325
243 243 244 246 247 247 247 249 246 239 242 261 282 273 254 254 60 285 298 290 276 265 296 320 293 283 285 288 285 291 288 289 296 291 289 296 324 344 332 308 328 314 352 300 300 298 300 296 305 309 323 322 323 355 3 305 315 305 313 334 331 340 349 310 322 338 339 332 331 320 22 66 344 354 355 1 337 22 344 313 310 319 327 322 331 330 325
240 239 240 242 242 241 242 240 238 237 234 237 251 280 315 243 203 230 284 293 287 281 292 295 301 290 296 295 294 290 298 298 285 283 294 304 333 334 321 277 161 323 296 312 322 320 302 315 314 324 299 321 318 357 302 303 321 325 339 330 315 9 325 327 348 343 312 332 341 346 340 357 348 342 1 18 23 2 317 319 325 330 329 330 335 333 320
237 239 240 239 241 241 240 237 234 232 232 220 228 267 277 170 202 219 242 268 288 293 286 279 335 317 308 292 283 279 277 278 295 295 307 302 319 317 301 6 326 325 311 346 330 320 321 312 321 315 320 294 327 310 320 332 304 308 305 340 3 35 311 344 3 33 328 343 349 350 287 283 329 355 359 358 4 346 345 337 327 333 333 338 331 330 320
231 232 235 238 238 238 238 234 230 229 223 218 217 250 268 213 193 256 249 237 250 247 270 303 305 292 284 274 264 262 265 271 277 289 294 296 305 297 294 298 286 302 341 348 309 312 318 332 308 316 315 314 305 300 338 310 306 332 353 40 327 50 27 346 325 17 106 328 342 249 325 344 349 357 4 350 354 350 341 335 332 332 332 329 326 323 322
230 230 233 236 236 236 236 234 231 225 224 211 204 238 255 309 243 198 242 270 259 265 275 282 281 275 264 255 253 250 238 232 247 252 252 268 282 273 279 281 301 43 302 341 317 317 319 326 300 323 315 301 325 316 306 299 295 333 327 16 338 65 100 302 297 352 313 252 178 13 3 353 342 1 1 353 343 347 340 340 332 338 338 335 328 325 335
227 227 231 234 234 234 233 234 230 223 221 213 211 232 245 255 289 309 285 270 277 295 291 257 272 282 306 320 277 207 222 239 245 261 252 243 256 275 267 321 360 319 28 38 23 336 327 316 305 310 292 301 311 303 306 312 309 353 340 314 3 42 9 327 343 326 330 338 354 14 359 345 338 358 348 352 346 341 345 343 337 328 331 337 336 335 332
226 225 227 231 234 233 233 232 231 222 215 213 219 243 267 274 269 252 277 307 311 320 296 309 292 272 279 274 291 287 262 255 221 206 207 201 216 240 265 333 348 326 308 317 293 295 288 291 294 272 280 285 295 290 310 302 301 341 311 330 11 343 321 306 354 329 328 332 355 360 350 336 356 355 346 344 341 344 347 337 332 332 336 339 333 333 331
225 224 224 226 230 233 231 231 228 222 208 204 221 232 234 247 258 252 269 277 268 272 281 292 292 288 280 289 280 290 304 298 281 253 248 239 214 238 259 289 294 290 300 324 321 303 297 281 287 288 286 288 285 286 287 310 298 310 301 337 350 290 303 346 333 322 327 332 352 346 336 335 343 340 350 340 338 341 339 337 331 338 339 336 336 339 329
223 221 223 223 226 229 231 229 227 221 210 200 215 232 245 252 243 242 240 258 315 278 222 253 286 300 344 319 297 288 275 258 246 251 258 264 211 215 237 250 262 266 272 273 263 260 259 267 267 276 278 289 318 294 299 287 304 307 340 24 342 356 23 346 340 345 342 343 343 346 341 332 334 343 336 334 340 338 334 333 338 341 339 336 339 335 333
220 219 220 222 225 226 227 226 225 217 208 204 224 237 248 250 245 242 234 231 215 260 304 302 303 304 313 282 273 257 239 244 246 244 237 240 235 233 239 247 252 262 264 268 270 252 251 255 258 260 270 271 290 290 295 292 279 295 65 26 17 12 12 1 357 341 320 330 335 336 326 314 328 329 328 333 339 339 335 337 338 338 337 339 337 331 334
218 217 219 220 223 224 224 223 220 213 200 201 226 241 255 249 249 234 230 219 225 258 276 281 288 289 293 324 323 297 281 258 244 241 233 225 235 232 235 242 253 252 248 249 261 276 276 273 290 285 279 322 324 290 311 305 308 4 35 17 33 62 352 7 347 321 310 330 331 335 337 326 322 324 325 330 341 337 336 337 338 339 338 340 336 336 338
218 217 217 219 223 223 222 220 214 202 186 201 217 247 264 257 209 219 213 214 192 215 264 298 300 281 309 305 293 300 290 257 217 226 231 231 229 232 233 232 232 232 248 254 254 261 265 273 267 274 280 279 269 287 279 282 291 46 342 13 10 352 5 337 345 327 321 324 335 342 326 311 319 324 327 337 338 337 337 336 340 338 338 338 336 339 340
218 218 220 220 221 222 222 219 208 190 176 198 183 228 237 249 122 111 146 180 155 195 240 244 261 309 294 259 257 263 267 256 227 206 216 227 239 243 244 241 238 217 211 226 243 252 267 263 275 270 267 260 270 276 273 277 291 153 70 5 15 1 355 347 353 338 349 355 343 326 310 322 327 334 336 338 338 341 339 339 337 337 338 340 340 339 339
219 218 219 218 217 215 216 214 206 185 189 195 199 223 260 2 97 118 116 127 128 182 251 295 296 271 287 294 290 303 287 274 246 234 231 215 229 223 240 235 242 227 230 239 242 253 246 257 261 266 274 275 256 270 271 269 273 320 6 349 18 6 354 348 341 348 7 350 329 320 326 327 334 346 336 332 338 339 340 338 337 337 341 340 338 340 341
218 219 219 220 217 214 211 210 203 189 203 214 357 88 152 108 95 109 130 121 135 199 321 251 262 301 273 297 315 291 259 258 250 225 251 197 239 204 232 222 238 245 182 210 225 245 255 256 246 254 253 243 236 237 264 280 292 305 325 351 360 8 2 350 334 349 347 337 326 330 326 327 333 334 333 336 340 338 342 344 340 340 341 342 344 345 345
214 215 215 215 216 213 214 210 205 200 205 158 225 228 173 147 150 163 128 110 76 258 208 242 269 258 269 300 292 295 236 231 232 192 234 185 213 204 225 228 216 238 203 221 235 252 249 256 263 283 295 236 186 287 257 268 246 322 331 338 353 331 307 322 342 334 340 329 328 323 321 327 333 330 338 341 341 343 343 342 340 343 343 345 345 346 344
209 209 210 211 211 212 209 207 207 202 204 207 236 208 154 171 168 171 161 123 144 208 206 236 240 282 292 290 272 278 289 294 273 214 248 193 184 226 216 244 166 209 225 203 242 235 255 254 259 248 253 122 140 215 243 197 186 347 338 333 341 330 334 341 341 341 332 321 321 327 327 335 331 334 337 338 341 342 343 341 343 343 343 345 344 344 344
203 200 201 203 207 204 213 212 213 199 207 200 172 146 163 171 168 175 189 194 220 235 211 226 218 237 256 282 292 341 8 265 258 262 253 183 184 220 246 236 248 209 222 215 248 238 245 226 220 249 216 212 225 241 42 41 347 339 337 333 336 331 339 331 329 329 330 328 328 335 342 337 335 334 336 338 340 341 343 341 342 343 343 343 344 342 343
195 194 188 189 192 204 214 214 157 198 210 117 116 119 133 147 133 193 205 220 216 199 241 256 247 237 233 259 290 267 271 278 259 235 227 229 242 176 217 226 240 238 216 225 229 244 249 243 248 248 203 227 88 75 58 12 3 342 334 333 328 328 331 331 336 342 339 339 338 345 339 334 334 339 336 338 338 341 342 344 344 343 343 344 340 343 342
189 179 172 182 184 198 196 201 182 129 113 116 117 100 115 196 180 196 200 224 193 175 224 217 245 243 250 251 246 271 312 265 247 247 240 218 239 228 199 239 256 193 233 248 253 237 231 197 223 241 247 83 93 96 41 359 346 342 325 325 331 333 334 334 339 328 321 321 320 325 332 338 336 335 338 336 339 344 343 342 339 340 339 339 339 342 337
174 167 174 196 188 197 198 139 124 118 111 113 60 85 160 193 192 218 208 185 190 215 207 216 236 215 225 237 251 248 246 294 307 297 278 167 246 266 212 252 201 211 254 265 268 139 255 205 200 224 242 135 156 153 167 118 186 297 345 325 340 335 336 325 324 318 324 333 334 343 346 335 331 333 335 335 338 340 339 340 339 340 339 337 340 339 337
167 177 179 169 200 102 94 122 124 108 79 83 21 191 183 183 202 219 159 195 216 213 191 232 222 223 216 226 237 249 209 225 237 247 244 259 146 277 283 252 274 190 255 261 257 146 258 278 273 209 201 136 145 134 180 173 223 113 328 338 329 327 321 314 313 316 319 320 321 324 325 327 336 336 331 335 339 337 339 340 337 337 337 337 337 337 340
174 136 159 148 109 122 115 121 61 49 85 121 136 232 209 207 205 245 196 221 227 225 192 230 194 208 216 225 229 242 208 219 244 257 277 274 14 261 267 269 321 279 267 263 283 278 253 254 265 284 85 133 138 155 191 194 180 335 313 314 321 317 317 324 328 331 327 326 331 334 336 342 341 335 337 340 338 335 336 337 336 335 336 336 337 337 341
141 114 95 89 80 81 82 35 46 93 81 207 180 208 196 235 174 214 216 227 217 222 209 195 227 219 215 199 214 220 231 220 239 233 234 252 215 236 252 264 261 256 261 278 300 269 257 259 262 157 151 149 155 168 188 171 219 298 301 315 331 355 337 306 307 313 327 333 333 333 339 336 330 334 342 339 337 338 336 337 335 336 335 335 332 335 339
98 99 86 83 59 60 107 136 213 182 152 167 189 231 188 212 201 194 200 221 257 249 222 188 230 227 206 171 201 206 236 148 219 212 222 247 249 233 251 250 252 251 259 271 261 274 275 265 268 134 161 159 176 162 176 298 295 299 317 335 313 297 297 321 337 333 330 327 329 333 334 330 332 337 338 337 337 334 335 336 336 334 332 332 334 334 338
89 73 72 58 107 165 211 212 154 175 210 199 186 205 174 201 194 186 208 190 178 221 234 226 208 208 200 177 201 173 176 171 247 262 241 230 251 249 241 242 242 266 288 265 258 252 261 345 84 142 154 157 171 171 183 214 296 311 313 335 338 332 346 340 330 331 327 328 334 333 328 334 338 334 336 336 340 336 334 335 338 336 330 332 331 335 337
92 58 95 126 154 160 152 209 153 206 220 204 210 224 198 213 196 191 202 168 185 240 197 221 213 201 215 179 215 195 185 201 157 215 227 224 236 237 243 252 257 263 260 268 267 274 250 143 115 133 150 159 162 148 241 298 318 317 317 312 314 332 331 327 329 325 324 330 333 333 331 336 335 337 336 336 335 338 337 337 339 335 333 332 332 335 335
128 158 149 158 182 193 205 214 161 216 230 224 207 208 224 227 212 200 181 167 214 233 239 212 222 217 218 159 218 174 156 226 198 213 247 232 240 236 229 245 252 258 259 256 260 256 284 100 157 164 150 136 143 234 276 289 299 310 318 320 331 323 322 324 323 322 323 330 329 329 332 333 337 338 337 333 335 340 341 341 337 337 335 334 333 334 333
91 100 173 218 216 190 199 224 204 208 201 210 226 227 229 236 165 144 156 189 233 248 241 229 224 220 212 145 207 186 202 198 224 201 204 239 234 254 249 258 250 241 247 253 252 264 199 149 131 134 146 166 202 229 263 293 316 326 326 326 322 314 311 314 317 320 332 329 328 331 332 336 337 337 332 332 337 336 339 338 335 335 337 334 334 331 334
149 151 175 208 209 180 206 221 239 242 232 242 237 238 233 99 130 193 222 220 245 219 243 235 223 206 218 160 212 228 212 197 228 228 212 239 223 240 244 239 243 248 250 259 260 309 106 156 165 148 151 205 246 272 290 297 319 318 317 313 305 307 318 317 317 328 329 330 331 330 331 335 336 331 332 334 333 333 337 335 335 337 336 337 335 333 335
132 162 184 223 234 210 220 213 215 234 232 187 63 62 82 153 208 206 257 267 261 252 236 231 218 156 226 153 200 220 241 197 224 230 205 220 237 234 221 237 240 247 250 258 329 98 125 116 128 161 206 255 280 291 292 325 337 345 323 300 304 304 304 314 327 328 328 328 329 329 331 331 328 330 332 333 331 333 334 332 337 339 339 338 334 332 333
147 224 232 232 236 244 243 242 218 228 206 170 165 185 155 200 222 230 225 257 228 238 266 265 66 225 205 155 202 208 236 213 218 220 223 225 223 231 237 247 243 247 257 131 116 231 138 170 167 187 212 215 232 257 283 289 272 235 263 275 278 298 313 325 318 325 326 328 330 333 326 323 328 334 333 333 332 331 330 333 340 342 340 338 333 330 334
266 260 253 220 222 240 188 216 218 222 180 183 182 193 188 208 208 222 197 228 217 215 229 220 184 201 206 202 218 213 215 204 223 222 230 233 221 225 229 238 247 251 275 77 108 135 216 249 243 256 196 211 216 231 254 267 298 288 272 272 290 300 311 313 321 325 326 328 323 316 319 330 334 327 323 327 329 331 327 340 351 344 340 336 332 330 335
194 209 220 219 227 244 250 8 4 257 230 169 183 199 193 221 212 224 208 220 203 202 209 209 196 192 208 218 207 230 273 200 230 225 229 226 228 244 243 244 247 249 242 149 207 213 231 244 241 235 279 55 301 277 260 297 277 272 280 293 308 316 322 331 331 322 322 318 317 321 331 335 326 318 329 336 334 329 335 339 339 339 339 335 330 331 335